EHI
0 0 0 0 0 0 0 0 0 0 0 0 0 0 0 0 0 1 12 32 55 66 51 26 19 24 39 59 76 87 92 93 93 89 81 73 66 58 48 38 28 20 15 11 8 5 2 2 3
0 0 0 0 0 0 0 0 0 0 0 0 0 0 0 0 0 3 19 44 58 57 44 28 25 33 48 67 82 92 95 96 96 94 88 80 72 63 51 39 29 21 15 11 7 4 2 1 2
0 0 0 0 0 0 0 0 0 0 0 0 0 0 0 1 1 8 28 50 54 43 35 34 37 45 59 75 88 95 97 98 99 99 96 89 81 69 54 40 28 20 15 11 6 3 1 0 1
0 0 0 0 0 0 0 0 0 0 0 0 0 0 1 2 4 13 32 46 44 33 27 35 44 50 61 76 88 95 97 99 100 100 98 93 86 73 54 37 27 20 15 11 7 4 2 1 0
0 0 0 0 0 0 0 0 0 0 0 0 0 0 3 8 13 21 34 42 38 29 22 26 37 46 56 71 84 92 96 99 100 99 97 93 85 70 50 33 24 20 16 11 7 5 4 2 1
0 0 0 0 0 0 0 0 0 0 0 0 0 1 6 19 30 35 38 37 31 23 17 17 22 29 41 58 74 84 90 94 97 97 93 88 79 62 41 27 21 19 16 10 5 3 3 2 1
0 0 0 0 0 0 0 0 0 0 0 0 0 1 10 31 49 50 43 32 21 15 11 9 8 10 19 36 54 69 79 85 89 89 84 77 65 47 31 21 18 17 15 9 4 2 1 1 0
0 0 0 0 0 0 0 0 0 0 0 0 0 1 13 40 63 67 54 36 21 11 7 4 1 1 4 13 26 42 58 67 70 70 64 53 39 27 17 12 13 14 11 7 4 3 2 1 0
0 0 0 0 0 0 0 0 0 0 0 0 0 1 16 46 72 80 71 53 35 19 9 4 1 0 0 1 6 15 28 37 40 39 34 23 14 9 9 10 10 9 7 4 3 2 2 1 0
0 0 0 0 0 0 0 0 0 0 0 0 0 2 17 46 72 82 78 65 51 33 15 5 2 1 1 1 1 2 6 10 13 13 10 6 3 3 7 10 8 4 4 3 2 1 1 0 0
0 0 0 0 0 0 0 0 0 0 0 0 0 2 14 36 60 71 67 58 49 36 18 6 2 1 2 3 3 3 2 1 3 5 4 2 3 4 5 6 4 2 2 1 1 0 0 0 0
0 0 0 0 0 0 0 0 0 0 0 0 0 2 8 22 41 51 49 42 35 26 15 6 3 2 3 5 5 4 3 3 6 9 8 5 4 4 4 2 1 1 1 1 1 0 0 0 0
0 0 0 0 0 0 0 0 0 0 0 0 0 1 3 9 22 32 36 34 28 19 12 7 4 2 3 6 6 3 2 4 8 11 9 5 4 4 4 3 1 0 1 1 0 0 0 0 0
0 0 0 0 0 0 0 0 0 0 0 0 0 0 1 2 9 22 31 32 26 17 11 7 5 4 4 5 5 3 2 4 6 8 7 5 5 5 5 5 4 2 1 1 1 1 1 0 0
0 0 0 0 0 0 0 0 0 0 0 0 0 0 0 0 4 15 26 28 23 16 12 10 7 6 7 6 4 2 2 4 6 7 8 8 10 12 11 10 10 8 5 5 5 5 3 2 1
0 0 0 0 0 0 0 0 0 0 0 0 0 1 1 2 4 10 15 19 19 17 17 14 10 10 12 10 7 6 7 8 9 11 14 16 18 20 18 18 21 21 17 15 14 11 8 5 4
0 0 0 0 0 0 0 0 0 0 0 1 1 4 7 10 12 12 11 12 14 18 22 20 17 18 19 17 16 17 19 20 19 19 22 26 27 27 26 28 33 34 30 27 23 18 14 10 9
0 0 0 0 0 0 0 0 0 1 2 4 8 13 18 22 24 22 16 14 16 22 27 29 28 31 33 31 30 31 33 34 31 28 29 31 33 32 31 36 42 42 37 33 27 22 18 12 10
0 0 0 0 0 0 1 1 3 6 9 13 20 25 27 30 33 32 25 22 24 28 34 39 42 46 51 50 47 46 46 43 38 32 29 29 31 34 33 36 44 44 37 32 26 21 15 10 7
0 0 0 0 0 0 1 2 5 11 18 25 32 35 36 37 39 38 33 30 31 35 41 47 53 58 62 64 63 61 55 46 35 29 26 23 24 28 29 31 36 38 33 27 22 17 11 6 4
0 0 0 0 0 0 1 2 4 10 20 31 39 42 44 43 42 41 39 36 36 41 48 54 58 63 68 70 71 70 60 46 35 28 23 19 17 19 21 22 25 27 25 19 15 11 7 3 1
0 0 0 0 0 0 0 0 1 6 15 28 36 40 43 42 40 40 42 42 42 46 55 60 62 66 69 71 71 68 58 45 35 28 21 14 11 12 12 13 14 14 13 10 7 5 3 1 0
0 0 0 0 0 0 0 0 1 3 10 20 27 32 35 35 35 37 39 41 44 49 56 61 62 64 68 69 67 60 47 35 28 22 15 8 5 5 5 5 4 4 4 3 2 1 0 0 0
0 0 0 0 0 0 0 1 3 4 8 13 16 20 25 26 26 28 30 32 36 43 49 54 55 57 60 59 54 47 35 24 19 14 9 3 1 0 0 0 0 0 0 0 0 0 0 0 0
0 0 0 0 0 0 0 2 5 8 8 7 7 9 14 16 16 18 19 20 22 27 34 40 42 42 42 38 33 29 24 18 13 9 4 1 0 0 0 0 0 0 0 0 0 0 0 0 0
0 0 0 0 0 0 0 2 6 8 8 6 4 4 6 8 8 8 8 9 10 12 17 21 24 23 21 18 15 14 12 9 7 4 1 0 0 0 0 0 0 0 0 0 0 0 0 0 0
0 0 0 0 0 0 0 2 4 6 6 5 4 3 3 2 2 2 2 2 2 3 4 6 7 7 7 6 6 5 3 2 1 1 0 0 0 0 0 0 0 0 0 0 0 0 0 0 0
0 0 0 0 0 0 0 1 2 3 5 5 3 2 1 0 0 0 0 0 0 0 0 0 0 1 1 1 1 1 1 0 0 0 0 0 0 0 0 0 0 0 0 0 0 0 0 0 0
0 0 0 0 0 0 0 0 0 2 4 4 2 1 0 0 0 0 0 0 0 0 0 0 0 0 0 0 0 0 0 0 0 0 0 0 0 0 0 0 0 0 0 0 0 0 0 0 0
0 0 0 0 0 0 0 0 0 1 3 2 1 0 0 0 0 0 0 0 0 0 0 0 0 0 0 0 0 0 0 0 0 0 0 0 0 0 0 0 0 0 0 0 0 0 0 0 0
Wind_Speed
9 7 7 6 9 8 4 4 3 6 5 5 3 3 4 4 5 5 6 14 16 19 20 19 13 13 15 17 17 18 18 18 17 16 15 14 13 13 12 12 12 12 12 12 12 11 11 11 11
6 5 7 7 9 8 6 4 4 9 7 4 0 2 3 2 6 6 9 15 18 19 19 19 15 13 16 17 17 18 18 18 17 16 15 14 13 12 12 12 12 11 11 11 11 11 10 10 9
6 7 8 8 11 9 5 4 4 7 4 3 2 0 2 5 4 5 10 18 19 18 19 19 16 14 15 17 18 18 18 18 17 16 15 14 13 12 11 12 11 11 10 10 10 10 9 8 8
6 7 7 11 15 11 5 1 4 6 4 4 4 1 5 5 3 7 16 19 19 19 18 19 15 15 15 16 17 17 18 17 16 16 15 14 13 12 11 11 11 10 10 9 9 8 7 6 6
8 9 13 16 19 13 7 5 6 7 5 4 4 2 5 6 6 13 18 18 18 18 18 20 15 15 15 15 16 16 16 15 15 15 14 13 12 11 10 11 10 10 9 9 9 7 6 5 4
9 11 17 19 19 15 10 8 8 8 5 3 3 3 6 8 11 16 17 17 17 17 18 19 16 16 15 15 15 14 14 14 14 14 13 12 11 10 10 10 9 9 9 9 8 7 5 4 3
14 15 20 22 19 16 12 9 10 8 6 4 4 2 7 10 12 15 16 16 16 16 17 18 18 16 15 13 13 13 13 13 13 13 12 12 11 10 9 9 8 8 8 8 7 6 5 3 3
11 15 23 23 21 18 12 10 10 9 6 3 3 4 5 12 14 15 15 14 15 15 16 17 17 17 16 15 14 14 13 13 13 13 13 12 11 10 9 9 8 7 7 7 6 5 4 3 2
9 15 21 22 19 17 11 11 11 7 8 6 4 4 5 17 18 16 15 14 15 14 14 15 17 16 16 16 15 15 13 12 13 13 12 12 11 11 10 8 8 6 5 5 5 5 4 4 6
11 17 23 17 14 13 11 12 12 10 12 9 6 3 9 17 18 19 19 18 18 17 16 15 16 16 16 13 13 12 12 12 12 11 12 10 7 6 5 11 6 5 5 5 5 5 7 9 7
11 17 15 10 9 10 12 13 13 15 16 12 8 6 12 17 18 19 19 19 19 18 17 16 15 15 14 11 11 8 8 9 11 11 11 7 6 6 5 6 8 8 8 8 8 9 7 5 3
11 11 11 11 10 12 15 15 16 18 18 11 7 5 13 17 19 19 19 19 18 19 18 16 16 14 14 11 10 9 8 8 8 9 10 8 5 5 5 4 5 5 5 4 4 4 3 4 5
14 12 12 13 13 14 14 16 16 18 17 14 11 10 15 18 18 18 18 18 18 18 18 16 15 14 11 10 8 9 8 8 8 8 9 8 7 6 5 4 3 5 3 4 5 4 3 5 6
7 9 11 13 14 14 15 17 18 17 16 15 14 14 15 17 19 18 18 17 17 17 17 16 15 14 12 10 8 8 8 7 8 8 9 9 7 5 5 5 5 5 4 3 3 3 4 4 3
8 10 12 14 15 14 13 17 19 18 14 14 14 14 14 16 17 18 18 17 17 16 15 15 15 14 13 12 11 8 8 8 7 7 8 8 8 6 5 5 5 4 4 4 4 4 4 3 3
10 11 11 10 12 12 13 14 10 12 13 14 13 12 12 13 16 16 17 15 15 15 15 14 13 14 13 11 10 8 7 7 6 6 6 8 8 6 6 5 5 4 3 3 3 3 3 2 2
11 11 8 7 9 9 14 8 2 4 10 12 11 10 10 11 13 13 14 14 14 14 15 15 14 14 13 12 9 8 6 6 6 5 5 7 8 8 6 5 3 4 3 3 3 2 3 2 1
8 8 7 7 7 8 11 4 3 2 5 8 7 7 7 8 9 10 11 12 12 13 14 14 14 13 12 10 8 7 7 6 5 4 4 5 6 7 6 4 4 4 3 3 3 2 1 1 2
3 5 5 4 4 6 7 4 5 5 3 4 4 5 5 5 5 6 8 9 11 12 13 14 14 14 11 9 9 8 7 6 5 3 3 4 5 5 5 4 4 4 4 3 4 3 3 1 1
9 9 7 6 4 4 7 8 8 9 9 8 6 5 5 5 5 4 5 6 9 11 11 12 13 13 13 10 8 7 6 5 4 3 2 1 2 2 3 4 4 4 3 3 3 3 2 1 2
10 10 6 4 5 7 9 8 8 10 10 10 10 8 8 6 5 5 3 2 5 7 9 10 11 12 12 11 8 6 5 4 4 3 3 2 2 1 1 2 2 3 3 3 3 3 4 3 2
10 8 7 6 9 9 10 8 8 8 10 10 10 10 9 8 8 7 5 4 1 2 5 7 8 10 10 10 10 10 7 6 4 3 4 5 5 3 2 2 2 2 2 2 3 2 1 2 3
8 4 7 7 8 7 9 7 10 8 8 9 10 10 10 10 10 10 9 8 6 4 1 3 5 5 7 8 8 9 7 5 5 6 7 7 6 6 6 5 5 5 4 5 5 4 2 1 1
8 7 7 8 9 10 7 7 8 5 7 9 9 10 10 11 11 11 11 11 10 8 6 4 5 5 5 6 7 8 8 9 10 9 8 6 5 5 8 8 7 7 7 7 6 6 7 5 5
11 10 9 11 11 7 5 4 8 9 10 10 10 10 10 11 11 12 12 13 12 12 9 8 8 8 7 7 7 7 8 9 10 9 8 7 6 6 7 8 8 8 8 8 8 8 8 8 7
12 14 9 8 10 8 8 6 9 10 11 11 11 11 11 12 12 12 12 12 12 13 12 12 12 12 11 11 11 10 10 8 8 10 9 8 7 7 8 9 10 10 9 9 8 8 8 8 7
10 12 8 6 4 6 8 9 9 9 11 11 12 12 12 11 11 12 12 13 13 13 14 14 15 15 15 15 15 14 13 13 13 12 11 9 9 9 11 10 11 10 10 10 9 8 8 7 7
7 6 6 9 8 7 9 9 8 12 11 11 11 11 11 11 11 12 12 13 13 13 14 15 16 16 16 15 14 13 15 15 14 13 14 12 11 11 11 11 11 10 10 9 8 8 8 8 7
7 7 7 7 7 5 8 6 5 10 12 13 12 11 11 11 11 11 11 12 13 14 15 15 16 17 16 16 15 16 15 15 14 13 13 12 11 11 11 11 11 10 10 9 9 8 8 7 6
3 3 6 6 6 7 1 8 6 10 13 14 13 12 12 12 11 12 12 13 13 14 14 15 15 16 16 15 16 16 15 14 14 13 12 11 11 11 11 10 10 10 10 9 9 8 7 7 6
Wind_Direction
259 243 246 254 251 237 205 108 52 32 32 22 345 303 310 329 339 35 101 152 146 146 143 147 144 144 144 145 146 145 146 145 145 143 142 140 137 134 132 131 129 127 124 122 121 120 119 120 120
278 246 245 250 258 236 177 129 62 29 23 356 32 247 271 47 47 89 136 146 149 146 148 154 142 144 143 145 145 144 146 145 144 142 140 138 136 134 133 133 132 129 127 125 124 123 121 122 124
249 242 260 255 245 244 180 134 33 12 32 1 353 338 359 39 88 124 141 151 151 147 151 142 147 145 144 146 146 146 146 144 142 141 139 137 136 135 135 135 133 130 127 125 125 125 125 126 128
226 222 240 247 242 236 245 174 340 339 11 10 331 110 86 50 85 130 145 155 152 150 150 144 153 148 147 148 149 148 146 144 142 141 140 138 138 137 137 137 134 130 127 125 124 125 126 129 131
233 236 236 238 240 236 236 270 301 313 340 355 317 288 102 82 104 133 151 156 153 152 151 149 154 150 150 151 150 148 146 144 142 142 141 140 139 139 140 138 135 131 128 125 123 123 123 124 128
224 231 237 236 233 231 235 252 275 286 308 339 312 281 93 111 131 145 153 158 155 152 151 148 155 156 155 154 151 149 147 145 143 143 142 140 139 140 141 139 136 131 128 126 124 123 121 114 111
236 231 238 241 239 230 228 246 261 275 283 339 328 277 116 131 138 150 154 160 155 156 152 155 162 162 161 156 154 151 148 146 145 144 143 143 144 144 144 142 138 133 130 129 129 128 126 117 105
251 244 242 241 241 238 227 239 250 267 287 338 293 274 129 140 147 151 156 160 159 161 158 161 166 166 169 167 162 157 153 150 149 149 151 150 149 152 153 162 143 140 136 134 133 134 137 137 134
238 239 239 236 238 242 232 239 241 253 265 263 263 320 75 140 151 156 158 163 164 166 164 168 169 170 174 171 163 166 162 157 158 160 158 167 177 169 176 156 142 154 148 143 140 144 156 189 181
224 236 241 249 257 248 231 235 246 250 251 243 220 152 136 154 161 167 168 172 172 172 174 174 174 172 177 170 165 175 177 171 186 174 174 192 179 181 178 126 160 170 167 168 160 166 195 226 198
230 244 252 250 259 259 248 242 248 254 255 248 241 187 166 173 175 179 178 179 177 174 177 179 179 178 178 172 171 179 184 174 193 181 184 190 178 183 187 170 175 189 194 199 169 201 215 222 228
239 244 255 253 247 245 249 252 249 245 251 260 264 214 184 188 187 187 184 182 179 178 181 182 180 181 185 179 177 181 186 179 188 179 193 185 193 196 193 202 196 196 203 209 221 228 212 239 233
235 241 238 244 245 247 251 250 251 252 251 253 250 224 204 199 195 192 187 183 182 181 182 182 185 182 187 184 187 189 193 186 186 182 193 199 197 200 192 201 213 230 215 202 226 235 217 235 228
245 247 246 243 241 239 242 246 242 246 244 242 234 223 211 206 198 190 187 185 185 184 184 181 186 183 187 189 194 194 196 195 195 193 193 201 208 199 201 202 206 227 230 239 239 236 232 240 247
252 253 246 234 229 229 231 239 235 240 236 233 225 216 211 206 197 191 188 187 186 184 184 184 187 186 190 194 199 198 201 196 204 197 197 202 212 199 211 217 208 219 223 225 241 233 240 234 228
226 234 235 205 207 208 220 231 217 225 222 223 220 209 205 202 197 192 188 188 185 184 184 187 189 190 191 197 202 204 204 199 205 202 200 204 213 207 216 225 216 208 217 224 231 245 239 231 235
213 221 216 175 188 192 216 226 147 207 208 209 206 199 195 192 195 188 188 187 186 185 183 187 193 192 193 194 198 208 202 204 206 205 207 201 209 210 219 228 215 208 210 212 226 218 251 236 226
199 208 197 182 157 196 206 194 87 109 193 190 189 183 176 180 184 182 185 185 185 185 185 189 192 193 191 191 194 201 199 196 204 206 209 208 209 211 217 219 206 211 207 194 200 200 223 231 223
269 247 216 178 155 202 179 129 72 69 109 130 132 133 143 144 143 163 175 183 184 185 187 190 194 191 189 191 194 194 193 188 186 188 188 204 212 209 209 218 197 205 204 198 188 192 189 192 197
236 235 218 182 157 203 143 112 79 61 64 58 72 88 102 111 109 120 162 177 186 187 187 188 194 192 192 193 194 193 185 181 172 159 138 160 201 213 217 217 201 193 187 184 191 185 192 173 218
224 235 224 196 174 186 165 136 107 84 73 65 62 61 66 70 82 86 105 154 185 190 192 191 193 192 194 188 185 170 164 170 166 149 123 86 73 65 238 215 191 169 176 182 184 184 187 177 166
219 219 238 238 228 185 209 172 129 116 89 70 61 57 55 58 62 58 56 60 75 174 189 190 189 188 187 185 186 176 178 180 159 125 108 83 68 68 71 102 111 117 128 139 145 138 169 178 171
238 216 230 234 240 219 207 209 130 138 104 77 63 56 53 52 55 53 47 44 39 39 91 159 162 170 176 179 180 179 179 151 123 114 105 89 73 67 70 72 80 88 88 88 86 90 83 89 139
234 222 220 231 226 216 203 216 129 120 108 97 76 62 55 54 55 50 45 45 42 43 55 76 100 107 117 137 160 169 153 138 134 126 119 107 91 77 75 75 72 72 75 75 75 75 73 63 62
216 217 202 199 208 189 169 184 98 91 97 101 91 73 60 54 52 47 43 42 41 44 51 65 80 78 87 100 105 115 122 125 125 122 116 106 94 81 75 80 79 77 75 75 76 76 72 69 69
206 224 233 213 196 160 170 137 109 105 101 101 94 83 70 61 54 49 46 45 45 47 52 61 69 70 71 75 79 81 87 90 90 94 97 95 89 86 83 79 79 76 76 78 75 76 74 69 67
198 222 250 272 217 179 139 119 123 130 118 109 98 86 75 67 61 57 52 50 50 52 54 61 69 69 68 72 75 75 77 82 83 81 79 80 81 84 79 77 75 72 70 69 69 69 67 64 58
258 220 214 237 214 191 160 165 155 156 138 121 105 94 85 76 68 63 59 58 58 60 63 64 68 71 71 72 74 77 77 78 80 80 79 78 77 77 77 75 73 69 67 66 66 69 62 62 55
200 206 230 237 263 234 176 133 110 153 138 123 110 100 93 84 77 72 70 67 68 68 68 70 72 74 74 75 78 79 79 80 81 80 81 82 81 79 78 76 75 72 68 64 63 61 55 50 42
251 238 234 238 218 264 234 99 83 124 122 119 113 105 98 93 87 83 80 76 73 73 73 74 76 79 80 81 82 82 82 82 82 81 81 81 80 78 77 76 74 71 67 60 56 54 48 41 31